Location: Casper
(42.8670°N, 106.3130°W)
Time: 12:25:05
(UTC-07:00)

Daily predictions for brighter satellites

Satellite Brightness Start Highest point End
(mag) Time Altitude Azimuth Time Altitude Azimuth Time Altitude Azimuth
BREEZE-M DEB (TANK) 4.3 17:42:50 10° WSW 17:47:16 79° NNW 18:06:42 10° ENE
DNEPR-1 R/B 3.7 18:11:03 10° NW 18:15:18 76° WSW 18:19:33 10° SSE
Cosmos 1461 3.1 18:15:55 10° NW 18:19:56 71° WSW 18:24:01 10° SSE
BREEZE-M DEB (TANK) 4.4 18:18:13 10° SSW 18:21:28 17° SSE 18:23:31 10° ESE
Meteor 1-11 Rocket 4.4 18:16:36 10° SSE 18:21:42 33° E 18:26:54 10° NNE
Nadezhda 1 Rocket 4.1 18:16:21 10° N 18:22:27 85° W 18:28:31 10° S
Cosmos 1602 4.5 18:21:30 10° SSE 18:24:55 30° E 18:28:23 10° NNE
DELTA 2 R/B (1) 4.2 18:19:45 10° W 18:25:12 54° SSW 18:30:39 10° ESE
Cosmos 1140 Rocket 4.0 18:21:47 10° SSE 18:26:26 36° ESE 18:31:08 10° NE
Resurs 01 Rocket 2.7 18:24:15 10° ESE 18:27:50 25° ENE 18:31:26 10° NNE
Cosmos 1300 Rocket 4.2 18:24:16 10° SSE 18:28:15 34° E 18:32:16 10° NNE
BREEZE-M DEB (TANK) 3.5 18:26:46 10° NW 18:29:23 40° NNE 18:35:01 11° E
COSMO-SKYMED 1 3.0 18:28:13 10° N 18:32:32 66° WNW 18:36:50 10° SSW
Cosmos 1190 Rocket 4.4 18:29:28 10° SSW 18:34:38 68° WNW 18:39:50 10° NNE
ALOS 2.7 18:32:19 10° SE 18:36:40 40° ENE 18:41:03 10° N
Cosmos 2292 Rocket 4.4 18:32:39 10° S 18:37:50 75° E 18:44:52 10° N
Cosmos 1833 4.2 18:32:38 10° S 18:38:13 60° ESE 18:43:47 10° NNE
FREGAT/IRIS 2.7 18:35:16 10° SSE 18:38:17 55° ENE 18:41:20 10° N
Cosmos 1340 2.6 18:37:18 10° N 18:41:05 65° E 18:44:50 10° SSE
Cosmos 2181 Rocket 4.0 18:36:28 10° N 18:42:39 61° E 18:48:54 10° SSE
Spot 2 Rocket 4.0 18:38:08 10° SE 18:42:45 37° ENE 18:47:25 10° N
Helios 1A 4.4 18:40:56 13° E 18:43:03 19° ENE 18:45:59 10° NNE
Cosmos 2333 Rocket 3.7 18:39:42 10° N 18:43:40 19° NE 18:46:14 14° ENE
SL-16 R/B 3.4 18:40:01 10° NW 18:45:25 46° WSW 18:50:48 10° S
Resurs 1-3 4.3 18:41:38 10° SE 18:45:29 31° ENE 18:49:22 10° N
USA 229 DEB 4.3 18:42:22 10° NNW 18:49:00 40° NE 18:54:32 15° ESE
USA 229 4.3 18:42:28 10° NNW 18:49:05 40° NE 18:54:36 15° ESE
Cosmos 1850 Rocket 4.4 18:48:54 10° S 18:53:50 41° ESE 18:58:50 10° NNE
Helios 1B rocket 3.8 18:54:33 19° E 18:54:33 19° E 18:57:19 10° SE
Tiangong 2 3.5 18:53:19 10° WSW 18:55:33 18° SSW 18:57:47 10° SSE
HJ-1C 3.4 18:53:20 10° SSE 18:56:39 58° ENE 18:59:58 10° N
Cosmos 1709 Rocket 4.0 18:52:00 10° S 18:58:14 88° W 19:04:26 10° N
Cosmos 2074 Rocket 4.3 18:52:42 10° SSE 18:58:27 41° E 19:04:16 10° NNE
Envisat 4.3 18:58:42 18° ENE 18:59:22 19° ENE 19:02:48 10° NNE
SJ-6B 3.0 18:55:56 10° S 18:59:56 77° WSW 19:03:53 10° NNW
Genesis I 3.4 18:57:03 10° NNW 19:00:54 49° NE 19:03:08 22° ESE
Cosmos 1954 Rocket 4.1 18:56:07 10° SSW 19:01:18 82° WNW 19:06:35 10° NNE
Cosmos 2184 Rocket 4.3 18:55:38 10° SSE 19:01:29 41° E 19:07:18 10° NNE
Cosmos 2322 Rocket 4.1 18:56:42 10° NW 19:01:40 33° WSW 19:06:36 10° SSW
FengYun 1-2 T 4.1 18:57:00 10° SSE 19:02:26 71° ENE 19:07:55 10° N
Okean 1 Rocket 3.0 18:58:41 10° S 19:03:06 63° E 19:07:33 10° NNE
SAR-Lupe-4 4.2 19:04:46 27° ESE 19:05:52 33° ENE 19:09:08 10° N
FENGYUN 3A 3.6 19:04:04 10° SSE 19:09:29 82° ENE 19:14:56 10° NNW
Meteor 1-19 Rocket 4.3 19:04:47 10° N 19:10:30 87° W 19:16:16 10° S
BREEZE-M DEB (TANK) 2.1 19:12:12 10° WNW 19:14:43 85° NNE 19:17:19 25° ESE
Cosmos 1238 Rocket 3.1 19:13:36 10° NNW 19:16:30 47° W 19:19:21 10° S
Gbstr 26 Del rocket 2.5 19:14:22 10° SW 19:18:10 77° SE 19:19:28 38° ENE
Cosmos 2322 3.9 19:12:37 10° NNW 19:18:20 72° WSW 19:24:00 10° SSE
NOSS 8 (F) 4.5 19:15:19 10° SW 19:18:48 83° NW 19:20:56 23° NNE
GPS 2-04 Rocket1 4.3 19:16:48 10° SW 19:20:12 23° SSE 19:21:01 21° SSE
CZ-2D R/B 3.2 19:18:52 25° SE 19:20:53 56° ENE 19:24:39 10° N
Cosmos 405 Rocket 4.0 19:17:43 10° NNE 19:20:17 26° NE 19:20:17 26° NE
Cosmos 1025 Rocket 3.0 19:17:31 10° N 19:21:52 60° E 19:25:45 13° SSE
GEOS 3 Rocket 3.5 19:20:50 11° NE 19:25:52 79° SE 19:31:09 10° SSW
H-2A R/B 2.5 19:22:19 10° SSE 19:26:01 89° E 19:29:47 10° NNW
Cosmos 1536 2.8 19:23:19 10° S 19:27:18 84° W 19:31:19 10° N
Okean 1-7 Rocket 3.6 19:24:05 10° N 19:28:39 86° W 19:33:08 10° S
Cosmos 2285 Rocket 4.1 19:22:21 10° NNW 19:28:44 58° ENE 19:32:47 23° SE
Cosmos 1633 4.3 19:26:59 10° SW 19:30:22 34° WNW 19:33:47 10° N
Cosmos 2154 Rocket 4.4 19:24:46 10° SSE 19:30:30 37° E 19:36:14 10° NNE
COSMOS 2428 2.6 19:28:05 10° NNW 19:33:49 82° ENE 19:37:45 21° SSE
Cosmos 2237 4.3 19:28:18 10° NNW 19:34:03 80° WSW 19:39:35 11° SSE
Meteor 1-23 Rocket 4.2 19:28:19 10° N 19:34:10 87° E 19:39:55 10° S
Cosmos 2333 4.1 19:29:21 10° NNW 19:35:07 74° ENE 19:38:23 27° SE
Meteor 2-4 Rocket 3.8 19:30:45 10° NNW 19:36:18 74° W 19:41:41 10° S
Cosmos 2237 Rocket 3.0 19:32:32 10° N 19:37:37 32° NE 19:37:45 32° ENE
SL-08 ROCKET BODY 4.5 19:36:15 10° S 19:42:26 83° W 19:48:40 10° N
Cosmos 1741 Rocket 4.2 19:39:43 10° SSW 19:44:56 73° WNW 19:50:11 10° NNE
NOSS 0 Rocket 4.0 19:45:25 10° NNW 19:51:28 56° ENE 19:52:27 50° E
Cosmos 2360 Rocket 3.8 19:47:26 10° NW 19:52:26 33° WSW 19:57:26 10° SSW
Cosmos 2219 Rocket 2.1 19:48:56 10° NNW 19:54:32 68° ENE 19:55:22 59° ESE
Cosmos 2219 3.3 19:49:14 10° SSW 19:54:59 77° WNW 20:00:46 10° NNE
Resurs 01 Rocket 3.3 20:00:14 10° SSW 20:04:10 32° W 20:08:08 10° NNW
SL-16 R/B 3.7 20:06:18 10° N 20:09:14 23° NNE 20:09:14 23° NNE
Helios 1A 4.2 20:17:34 35° SW 20:18:21 39° W 20:22:16 10° NNW
Cosmos 468 Rocket 4.1 20:14:50 10° NNW 20:19:38 74° NW 20:19:38 74° NW
Cosmos 2333 Rocket 2.3 20:22:52 10° NNW 20:28:17 77° WNW 20:28:17 77° WNW
Helios 1B rocket 4.2 20:25:54 10° N 20:30:52 30° WSW 20:33:31 10° SW
Cosmos 1980 4.1 20:30:35 10° NNW 20:35:02 57° NNW 20:35:02 57° NNW
Envisat 3.7 20:38:53 50° WNW 20:38:53 50° WNW 20:42:56 10° NNW
USA 229 DEB 4.3 20:33:17 10° NW 20:40:12 53° WSW 20:42:03 43° SSW
USA 229 4.3 20:33:23 10° NW 20:40:18 54° WSW 20:42:06 44° SSW
NOSS 3-1 (A) 4.0 20:45:34 10° NNW 20:52:26 69° NNE 20:52:26 69° NNE
ATLAS 2AS CENTAUR R/B 4.1 20:51:34 10° NNW 20:57:44 32° NNE 20:57:44 32° NNE
NOSS 3-1 (C) 4.2 21:05:04 10° NW 21:11:49 68° WNW 21:11:49 68° WNW
Cosmos 2237 Rocket 3.9 21:16:27 10° NW 21:19:36 29° WNW 21:19:36 29° WNW
